Home > Weather > Lexington-Fayette > Past weeks

Flag for USA Past Weather in Lexington-Fayette, Kentucky, USA — Yesterday and Last 2 Weeks

Now
75 °F

Clear.


Feels Like: 74 °F
Forecast: 72 / 89 °F
Wind: 3 mph from South

Location: Blue Grass Airport

Current Time: Jul 25, 2016 at 6:13:24 AM

Latest Report: Jul 25, 2016 at 5:54 AM


Visibility: 9 mi

Pressure: 29.99 "Hg

Humidity: 90%

Dew Point: 72 °F

Location of Lexington-FayetteLocation

Past Weather in Lexington-Fayette — Graph

°F

Lexington-Fayette Temperature Yesterday

Maximum temperature yesterday: 94 °F (at 3:54 PM)
Minimum temperature yesterday: 75 °F (at 3:54 AM)
Average temperature yesterday: 84 °F

High & Low Weather Summary for the Past Weeks

 TemperatureHumidityPressure
High94 °F (Jul 24, 3:54 PM)94% (Jul 10, 5:54 AM)30.27 "Hg (Jul 10, 5:54 AM)
Low64 °F (Jul 10, 5:54 AM)39% (Jul 11, 2:54 PM)29.92 "Hg (Jul 14, 6:54 PM)
Average79 °F72%30.07 "Hg
* Reported Jul 10 4:54 AM — Jul 25 4:54 AM, Lexington-Fayette, Weather by CustomWeather, © 2016

Note: Actual official high and low records may vary slightly from our data, if they occured in-between our weather recording intervals... More about our weather records

Advertising

Lexington-Fayette Weather History for the Previous 24 Hours

Scroll right to see more
 ConditionsComfort  
Time TempWeatherWind HumidityBarometerVisibility
4:54 AM
Mon, Jul 25
76 °FClear.3 mph91%29.99 "Hg10 mi
3:54 AM78 °FClear.No wind84%30.00 "Hg10 mi
2:54 AM78 °FClear.6 mph84%30.00 "Hg10 mi
1:54 AM80 °FClear.No wind79%29.99 "Hg10 mi
12:54 AM79 °FClear.6 mph82%29.96 "Hg10 mi
11:54 PM
Sun, Jul 24
80 °FClear.5 mph79%29.98 "Hg10 mi
10:54 PM80 °FClear.7 mph79%29.98 "Hg10 mi
9:54 PM83 °FClear.5 mph74%29.98 "Hg10 mi
8:54 PM86 °FSunny.5 mph65%29.97 "Hg10 mi
7:54 PM89 °FSunny.5 mph57%29.97 "Hg10 mi
6:54 PM91 °FSunny.7 mph52%29.96 "Hg10 mi
5:54 PM92 °FSunny.7 mph52%29.97 "Hg10 mi
4:54 PM94 °FPassing clouds.7 mph51%29.97 "Hg10 mi
3:54 PM94 °FBroken clouds.9 mph51%29.98 "Hg10 mi
2:54 PM93 °FBroken clouds.10 mph50%29.99 "Hg10 mi
1:54 PM92 °FPassing clouds.8 mph54%30.00 "Hg10 mi
12:54 PM90 °FPassing clouds.8 mph57%30.01 "Hg10 mi
11:54 AM88 °FSunny.7 mph63%30.02 "Hg10 mi
10:54 AM86 °FSunny.6 mph65%30.02 "Hg10 mi
9:54 AM83 °FSunny.3 mph74%30.01 "Hg10 mi
8:54 AM81 °FSunny.7 mph77%30.01 "Hg10 mi
7:54 AM76 °FSunny.5 mph91%29.99 "Hg7 mi
6:54 AM75 °FClear.6 mph90%29.99 "Hg7 mi
Weather by CustomWeather, © 2016

See weather overviewHow to use our weather pages